Total_Precipitation_Accumulation
0.79 0.90 0.99 1.03 1.10 1.19 1.28 1.33 1.37 1.33 1.31 1.24 1.04 0.98 0.94 0.92 0.97 0.90 0.94 0.76 0.51 0.42 0.41 0.42 0.44 0.48 0.59 0.77 0.94 1.09 1.29 1.43 1.52 1.60 1.63 1.68 1.72 1.77
0.88 0.99 1.03 1.04 1.06 1.15 1.27 1.44 1.54 1.52 1.37 1.14 1.03 1.07 1.09 0.99 0.93 0.80 0.75 0.72 0.55 0.43 0.39 0.39 0.39 0.41 0.46 0.60 0.75 0.87 1.02 1.14 1.26 1.36 1.43 1.46 1.49 1.58
0.79 0.91 0.99 1.02 1.06 1.11 1.20 1.29 1.44 1.57 1.44 1.22 1.17 1.22 1.28 1.25 1.08 0.90 0.75 0.69 0.59 0.47 0.38 0.37 0.37 0.42 0.48 0.55 0.66 0.77 0.84 0.90 1.03 1.16 1.26 1.34 1.38 1.42
0.82 0.84 0.83 0.89 1.00 1.02 1.08 1.12 1.23 1.43 1.39 1.30 1.33 1.37 1.39 1.33 1.25 1.07 0.88 0.77 0.71 0.55 0.42 0.37 0.36 0.38 0.42 0.42 0.50 0.65 0.77 0.83 0.86 0.89 0.95 1.06 1.19 1.29
0.73 0.73 0.71 0.73 0.78 0.87 0.97 0.96 0.98 1.10 1.25 1.32 1.43 1.50 1.57 1.46 1.28 1.14 1.02 0.93 0.74 0.64 0.53 0.43 0.40 0.38 0.39 0.39 0.43 0.51 0.64 0.77 0.85 0.89 0.91 0.96 1.02 1.10
0.62 0.59 0.61 0.64 0.66 0.71 0.80 0.85 0.88 0.97 1.11 1.20 1.38 1.58 1.60 1.65 1.52 1.30 1.20 1.14 0.91 0.67 0.62 0.55 0.49 0.44 0.40 0.36 0.37 0.44 0.53 0.69 0.85 0.93 0.99 1.07 1.13 1.13
0.57 0.52 0.50 0.49 0.52 0.58 0.60 0.67 0.75 0.85 0.89 0.99 1.14 1.39 1.53 1.63 1.59 1.40 1.26 1.28 1.16 0.86 0.72 0.67 0.63 0.56 0.51 0.44 0.36 0.36 0.44 0.58 0.78 0.93 1.02 1.12 1.24 1.30
0.48 0.48 0.44 0.39 0.42 0.43 0.41 0.46 0.54 0.61 0.72 0.86 0.94 1.14 1.34 1.43 1.54 1.63 1.51 1.35 1.30 1.17 1.05 0.98 0.86 0.79 0.67 0.52 0.43 0.34 0.34 0.44 0.56 0.71 0.86 1.00 1.12 1.28
0.42 0.44 0.35 0.30 0.37 0.40 0.37 0.32 0.35 0.38 0.46 0.65 0.78 0.88 1.11 1.32 1.48 1.65 1.65 1.58 1.49 1.43 1.33 1.31 1.11 0.94 0.80 0.68 0.59 0.45 0.37 0.33 0.38 0.47 0.57 0.71 0.84 0.96
0.36 0.42 0.43 0.38 0.38 0.40 0.41 0.36 0.32 0.31 0.34 0.40 0.50 0.68 0.94 1.30 1.50 1.57 1.69 1.74 1.71 1.65 1.56 1.54 1.40 1.20 1.05 0.92 0.81 0.61 0.49 0.41 0.38 0.38 0.41 0.47 0.59 0.71
0.35 0.40 0.44 0.43 0.42 0.33 0.36 0.37 0.36 0.36 0.31 0.34 0.41 0.53 0.71 0.99 1.38 1.51 1.55 1.49 1.47 1.33 1.19 1.22 1.28 1.28 1.26 1.16 1.01 0.87 0.71 0.57 0.50 0.49 0.48 0.48 0.54 0.64
0.51 0.51 0.44 0.40 0.38 0.31 0.35 0.41 0.38 0.36 0.38 0.39 0.39 0.41 0.47 0.64 0.93 1.17 1.22 1.19 1.10 1.11 0.92 0.85 0.88 0.95 1.08 1.06 0.96 0.89 0.83 0.81 0.74 0.63 0.57 0.55 0.63 0.62
0.55 0.57 0.53 0.43 0.32 0.29 0.32 0.40 0.40 0.41 0.51 0.54 0.53 0.53 0.55 0.59 0.67 0.85 1.02 1.07 0.99 0.86 0.82 0.79 0.77 0.78 0.78 0.81 0.83 0.79 0.80 0.84 0.83 0.80 0.75 0.73 0.77 0.74
0.61 0.63 0.64 0.48 0.36 0.34 0.34 0.35 0.36 0.38 0.48 0.57 0.55 0.52 0.53 0.53 0.56 0.69 0.85 0.95 1.02 0.93 0.85 0.84 0.82 0.76 0.71 0.66 0.67 0.66 0.68 0.78 0.89 0.99 0.95 0.94 0.94 1.01
0.66 0.66 0.63 0.52 0.42 0.39 0.42 0.41 0.38 0.39 0.47 0.54 0.54 0.47 0.45 0.50 0.61 0.74 0.87 0.95 0.99 0.98 0.89 0.82 0.80 0.79 0.71 0.65 0.59 0.58 0.61 0.69 0.77 0.93 1.09 1.13 1.08 1.07
0.71 0.70 0.63 0.60 0.53 0.50 0.52 0.47 0.42 0.48 0.53 0.54 0.57 0.59 0.58 0.61 0.65 0.71 0.79 0.86 0.91 0.91 0.86 0.81 0.82 0.82 0.76 0.65 0.64 0.62 0.60 0.64 0.64 0.71 0.92 1.16 1.33 1.40
0.90 0.91 0.85 0.79 0.69 0.63 0.64 0.65 0.63 0.66 0.61 0.62 0.67 0.73 0.72 0.66 0.63 0.67 0.77 0.80 0.76 0.76 0.79 0.82 0.84 0.88 0.85 0.69 0.63 0.63 0.63 0.60 0.54 0.54 0.63 0.84 1.10 1.31
0.93 0.93 0.92 0.87 0.80 0.79 0.81 0.80 0.77 0.75 0.71 0.70 0.72 0.77 0.80 0.74 0.68 0.68 0.73 0.76 0.72 0.71 0.71 0.74 0.81 0.90 0.94 0.87 0.61 0.49 0.52 0.53 0.52 0.54 0.57 0.60 0.74 0.85
0.90 0.91 0.88 0.88 0.83 0.83 0.85 0.84 0.80 0.80 0.80 0.79 0.77 0.78 0.83 0.82 0.78 0.73 0.70 0.72 0.73 0.75 0.74 0.72 0.72 0.72 0.69 0.66 0.62 0.44 0.40 0.43 0.50 0.57 0.61 0.54 0.53 0.60
0.87 0.89 0.88 0.87 0.86 0.84 0.81 0.83 0.84 0.85 0.82 0.77 0.78 0.79 0.82 0.81 0.83 0.77 0.69 0.66 0.70 0.76 0.79 0.73 0.63 0.54 0.49 0.47 0.49 0.51 0.44 0.47 0.50 0.53 0.57 0.55 0.53 0.53
0.91 0.90 0.86 0.82 0.81 0.81 0.80 0.78 0.77 0.77 0.78 0.81 0.79 0.77 0.81 0.78 0.75 0.73 0.72 0.71 0.72 0.76 0.72 0.60 0.55 0.58 0.67 0.74 0.66 0.56 0.52 0.50 0.59 0.62 0.63 0.65 0.63 0.61
0.90 0.85 0.84 0.78 0.77 0.78 0.78 0.76 0.75 0.75 0.77 0.83 0.82 0.79 0.77 0.72 0.66 0.66 0.70 0.69 0.65 0.67 0.72 0.73 0.78 0.77 0.76 0.71 0.63 0.58 0.60 0.63 0.67 0.78 0.79 0.68 0.57 0.53
0.85 0.81 0.80 0.75 0.71 0.68 0.68 0.68 0.69 0.71 0.72 0.76 0.79 0.79 0.78 0.72 0.65 0.64 0.68 0.70 0.70 0.72 0.85 0.91 0.88 0.79 0.70 0.69 0.70 0.68 0.68 0.73 0.76 0.79 0.81 0.70 0.51 0.41